Date String (YYYY-MM-DD hh:mm:ss) UTC,Instrument flags,Ambient pressure (hPa),Sample flow (lpm),Bypass flow (lpm),Sample temperature (°C),Ambient temperature (°C),ASC tube jacket temperature (°C),LED temperature (°C),Box temperature (°C),Sample RH (%),Span deviation,Mass concentration (μg/m³),Mass concentration (μg/m³),Mass concentration (μg/m³)
DateTimeUTC,F1_M11,P_M11,Q1_M11,Q2_M11,T1_M11,T2_M11,T3_M11,T4_M11,T5_M11,U1_M11,ZSPAN_M11,X0_M11,X2_M11,X1_M11
2021-09-21 17:00:00,,0841.3,4.99,0.00,28.5,27.8,00.0,37.6,30.3,14.1,0000.0,0005.60,0001.89,0001.55
2021-09-21 17:01:00,,0841.3,5.00,0.00,28.5,27.8,00.0,37.6,30.3,14.1,0000.0,0005.57,0001.88,0001.55
2021-09-21 17:02:00,,0841.3,5.02,0.00,28.6,27.9,00.0,37.6,30.3,14.6,0000.0,0005.32,0001.84,0001.55
2021-09-21 17:03:00,,0841.3,4.99,0.00,28.6,27.9,00.0,37.6,30.4,15.1,0000.0,0005.15,0001.81,0001.56
2021-09-21 17:04:00,,0841.3,5.01,0.00,28.6,27.9,00.0,37.6,30.4,14.7,0000.0,0005.06,0001.81,0001.57
2021-09-21 17:05:00,,0841.3,4.99,0.00,28.6,27.9,00.0,37.6,30.5,14.4,0000.0,0005.09,0001.83,0001.58
2021-09-21 17:06:00,,0841.3,4.99,0.00,28.7,27.9,00.0,37.7,30.5,13.8,0000.0,0005.07,0001.82,0001.58
2021-09-21 17:07:00,,0841.3,5.00,0.00,28.6,27.9,00.0,37.7,30.5,13.7,0000.0,0004.85,0001.81,0001.59
2021-09-21 17:08:00,,0841.3,5.00,0.00,28.6,27.9,00.0,37.7,30.5,13.9,0000.0,0003.98,0001.79,0001.59
2021-09-21 17:09:00,,0841.3,5.00,0.00,28.7,27.9,00.0,37.7,30.5,14.0,0000.0,0002.79,0001.81,0001.61
2021-09-21 17:10:00,,0841.3,5.00,0.00,28.7,27.9,00.0,37.7,30.5,13.7,0000.0,0002.49,0001.82,0001.62
2021-09-21 17:11:00,,0841.3,5.01,0.00,28.7,27.9,00.0,37.7,30.5,13.9,0000.0,0002.46,0001.81,0001.62
2021-09-21 17:12:00,,0841.3,5.00,0.00,28.7,27.9,00.0,37.7,30.5,13.9,0000.0,0002.43,0001.79,0001.60
2021-09-21 17:13:00,,0841.3,5.00,0.00,28.7,28.0,00.0,37.7,30.5,13.9,0000.0,0002.38,0001.78,0001.59
2021-09-21 17:14:00,,0841.3,5.00,0.00,28.7,28.0,00.0,37.7,30.5,13.7,0000.0,0002.40,0001.77,0001.58
2021-09-21 17:15:00,,0841.3,4.99,0.00,28.7,28.0,00.0,37.7,30.6,13.5,0000.0,0002.50,0001.81,0001.58
2021-09-21 17:16:00,,0841.3,5.00,0.00,28.7,28.0,00.0,37.8,30.5,13.6,0000.0,0002.50,0001.81,0001.59
2021-09-21 17:17:00,,0841.3,5.01,0.00,28.7,27.9,00.0,37.8,30.5,13.4,0000.0,0002.54,0001.82,0001.58
2021-09-21 17:18:00,,0841.3,4.99,0.00,28.7,28.0,00.0,37.8,30.5,13.5,0000.0,0002.57,0001.84,0001.59
2021-09-21 17:19:00,,0841.3,4.99,0.00,28.7,28.0,00.0,37.8,30.5,13.5,0000.0,0002.55,0001.82,0001.58
2021-09-21 17:20:00,,0841.3,5.02,0.00,28.7,28.0,00.0,37.8,30.5,13.5,0000.0,0002.53,0001.81,0001.56
2021-09-21 17:21:00,,0841.3,5.00,0.00,28.8,28.1,00.0,37.8,30.6,13.4,0000.0,0002.55,0001.83,0001.56
2021-09-21 17:22:00,,0841.3,5.00,0.00,28.8,28.1,00.0,37.8,30.6,14.0,0000.0,0002.60,0001.84,0001.55
2021-09-21 17:23:00,,0841.2,5.00,0.00,28.8,28.1,00.0,37.8,30.7,13.6,0000.0,0003.46,0001.82,0001.54
2021-09-21 17:24:00,,0841.2,5.00,0.00,28.8,28.1,00.0,37.8,30.7,13.6,0000.0,0003.94,0001.84,0001.54
2021-09-21 17:25:00,,0841.1,5.00,0.00,28.9,28.1,00.0,37.9,30.7,13.3,0000.0,0003.89,0001.83,0001.54
2021-09-21 17:26:00,,0841.1,4.99,0.00,28.9,28.2,00.0,37.9,30.7,13.3,0000.0,0003.82,0001.81,0001.53
2021-09-21 17:27:00,,0841.1,5.00,0.00,28.9,28.2,00.0,37.9,30.7,13.8,0000.0,0003.76,0001.79,0001.52
2021-09-21 17:28:00,,0841.1,5.01,0.00,28.9,28.2,00.0,37.9,30.8,13.6,0000.0,0003.78,0001.79,0001.52
2021-09-21 17:29:00,,0841.1,5.01,0.00,28.9,28.2,00.0,37.9,30.8,13.6,0000.0,0003.71,0001.76,0001.50
2021-09-21 17:30:00,,0841.1,5.01,0.00,28.9,28.2,00.0,37.9,30.8,13.6,0000.0,0003.86,0001.80,0001.49
2021-09-21 17:31:00,,0841.0,4.99,0.00,29.0,28.2,00.0,38.0,30.8,13.3,0000.0,0003.95,0001.81,0001.48
2021-09-21 17:32:00,,0841.0,5.01,0.00,29.0,28.3,00.0,38.0,30.8,13.3,0000.0,0003.91,0001.78,0001.47
2021-09-21 17:33:00,,0841.1,5.01,0.00,29.0,28.3,00.0,38.0,30.8,13.0,0000.0,0003.86,0001.75,0001.46
2021-09-21 17:34:00,,0841.1,5.01,0.00,29.0,28.2,00.0,38.0,30.8,13.4,0000.0,0003.46,0001.81,0001.46
2021-09-21 17:35:00,,0841.0,4.99,0.00,29.0,28.2,00.0,38.0,30.8,12.9,0000.0,0002.78,0001.84,0001.46
2021-09-21 17:36:00,,0841.0,5.01,0.00,29.0,28.2,00.0,38.0,30.7,12.8,0000.0,0002.76,0001.83,0001.46
2021-09-21 17:37:00,,0841.0,4.99,0.00,29.0,28.2,00.0,38.0,30.8,13.5,0000.0,0002.93,0001.84,0001.45
2021-09-21 17:38:00,,0841.0,4.99,0.00,29.0,28.2,00.0,38.0,30.8,13.2,0000.0,0003.02,0001.86,0001.44
2021-09-21 17:39:00,,0841.0,4.99,0.00,29.0,28.2,00.0,38.0,30.8,13.6,0000.0,0002.96,0001.84,0001.45
2021-09-21 17:40:00,,0841.0,4.99,0.00,29.0,28.2,00.0,38.0,30.7,13.5,0000.0,0003.00,0001.86,0001.46
2021-09-21 17:41:00,,0841.0,5.00,0.00,29.0,28.2,00.0,38.0,30.8,13.2,0000.0,0003.00,0001.88,0001.47
2021-09-21 17:42:00,,0840.9,5.01,0.00,29.0,28.2,00.0,38.0,30.8,12.5,0000.0,0002.90,0001.85,0001.47
2021-09-21 17:43:00,,0841.0,5.00,0.00,29.0,28.2,00.0,38.0,30.8,12.7,0000.0,0002.96,0001.85,0001.48
2021-09-21 17:44:00,,0841.0,4.99,0.00,29.0,28.2,00.0,38.1,30.7,12.9,0000.0,0002.98,0001.87,0001.48
2021-09-21 17:45:00,,0841.0,5.01,0.00,29.0,28.2,00.0,38.1,30.7,12.9,0000.0,0002.88,0001.85,0001.48
2021-09-21 17:46:00,,0841.0,4.99,0.00,29.0,28.2,00.0,38.1,30.7,12.9,0000.0,0002.82,0001.83,0001.49
2021-09-21 17:47:00,,0841.0,5.02,0.00,29.0,28.2,00.0,38.1,30.7,12.9,0000.0,0002.81,0001.83,0001.49
2021-09-21 17:48:00,,0840.9,5.00,0.00,29.0,28.2,00.0,38.1,30.7,12.9,0000.0,0003.30,0001.82,0001.51
2021-09-21 17:49:00,,0840.9,5.00,0.00,29.0,28.2,00.0,38.1,30.7,12.7,0000.0,0003.50,0001.81,0001.52
2021-09-21 17:50:00,,0840.9,5.00,0.00,29.0,28.2,00.0,38.1,30.7,13.0,0000.0,0003.94,0001.84,0001.52
2021-09-21 17:51:00,,0840.9,4.99,0.00,29.0,28.3,00.0,38.1,30.8,12.9,0000.0,0004.17,0001.85,0001.52
2021-09-21 17:52:00,,0840.9,5.00,0.00,29.0,28.3,00.0,38.1,30.8,13.1,0000.0,0004.16,0001.83,0001.51
2021-09-21 17:53:00,,0840.9,5.01,0.00,29.0,28.3,00.0,38.1,30.9,13.3,0000.0,0004.24,0001.83,0001.52
2021-09-21 17:54:00,,0840.9,5.00,0.00,29.1,28.3,00.0,38.1,30.9,13.0,0000.0,0004.33,0001.88,0001.54
2021-09-21 17:55:00,,0840.8,4.99,0.00,29.0,28.3,00.0,38.1,30.8,12.8,0000.0,0004.66,0001.89,0001.57
2021-09-21 17:56:00,,0840.8,5.00,0.00,29.0,28.3,00.0,38.1,30.8,12.9,0000.0,0004.86,0001.90,0001.59
2021-09-21 17:57:00,,0840.8,5.00,0.00,29.0,28.3,00.0,38.1,30.8,12.8,0000.0,0005.18,0001.92,0001.60
2021-09-21 17:58:00,,0840.8,5.00,0.00,29.0,28.3,00.0,38.1,30.8,12.8,0000.0,0005.67,0002.01,0001.62
2021-09-21 17:59:00,,0840.7,5.01,0.00,29.0,28.3,00.0,38.1,30.8,12.7,0000.0,0005.12,0002.07,0001.64
